TimeMST,TemperatureF,Dew PointF,Humidity,Sea Level PressureIn,VisibilityMPH,Wind Direction,Wind SpeedMPH,Gust SpeedMPH,PrecipitationIn,Events,Conditions,WindDirDegrees,DateUTC
12:55 AM,70.0,48.9,47,29.81,10.0,SSE,3.5,-,N/A,,Clear,160,2012-10-16 07:55:00
1:55 AM,70.0,48.9,47,29.81,10.0,South,4.6,-,N/A,,Clear,170,2012-10-16 08:55:00
2:55 AM,69.1,52.0,54,29.80,10.0,Calm,Calm,-,N/A,,Clear,0,2012-10-16 09:55:00
3:55 AM,69.1,52.0,54,29.79,10.0,Calm,Calm,-,N/A,,Clear,0,2012-10-16 10:55:00
4:55 AM,68.0,52.0,56,29.79,10.0,Calm,Calm,-,N/A,,Clear,0,2012-10-16 11:55:00
5:55 AM,66.9,48.9,52,29.80,10.0,NNE,3.5,-,N/A,,Clear,30,2012-10-16 12:55:00
6:55 AM,66.9,50.0,54,29.81,10.0,Calm,Calm,-,N/A,,Clear,0,2012-10-16 13:55:00
7:55 AM,71.1,46.9,42,29.82,10.0,NNE,3.5,-,N/A,,Clear,30,2012-10-16 14:55:00
8:55 AM,77.0,48.9,37,29.83,10.0,NNE,3.5,-,N/A,,Clear,20,2012-10-16 15:55:00
9:55 AM,81.0,50.0,34,29.83,10.0,Calm,Calm,-,N/A,,Clear,0,2012-10-16 16:55:00
10:55 AM,84.9,46.0,26,29.82,10.0,Calm,Calm,-,N/A,,Partly Cloudy,0,2012-10-16 17:55:00
11:55 AM,89.1,44.1,21,29.81,10.0,ESE,3.5,-,N/A,,Partly Cloudy,110,2012-10-16 18:55:00
12:55 PM,91.0,44.1,20,29.77,10.0,Variable,3.5,-,N/A,,Partly Cloudy,0,2012-10-16 19:55:00
1:55 PM,93.9,44.1,18,29.74,10.0,West,3.5,-,N/A,,Partly Cloudy,260,2012-10-16 20:55:00
2:55 PM,93.9,42.1,17,29.73,10.0,Calm,Calm,-,N/A,,Partly Cloudy,0,2012-10-16 21:55:00
3:55 PM,95.0,37.0,13,29.71,10.0,WSW,5.8,-,N/A,,Partly Cloudy,240,2012-10-16 22:55:00
4:55 PM,95.0,35.1,12,29.70,10.0,WSW,5.8,-,N/A,,Scattered Clouds,250,2012-10-16 23:55:00
5:55 PM,91.9,39.9,16,29.69,10.0,SSW,5.8,-,N/A,,Scattered Clouds,200,2012-10-17 00:55:00
6:55 PM,86.0,43.0,22,29.70,10.0,SSW,4.6,-,N/A,,Scattered Clouds,200,2012-10-17 01:55:00
7:55 PM,82.9,45.0,26,29.70,10.0,Calm,Calm,-,N/A,,Scattered Clouds,0,2012-10-17 02:55:00
8:55 PM,81.0,42.1,25,29.72,10.0,Calm,Calm,-,N/A,,Scattered Clouds,0,2012-10-17 03:55:00
9:55 PM,80.1,43.0,27,29.73,10.0,Calm,Calm,-,N/A,,Partly Cloudy,0,2012-10-17 04:55:00
10:55 PM,75.9,39.9,27,29.73,10.0,SSE,3.5,-,N/A,,Partly Cloudy,150,2012-10-17 05:55:00
11:55 PM,73.0,46.9,39,29.73,10.0,Calm,Calm,-,N/A,,Partly Cloudy,0,2012-10-17 06:55:00